Location: Kott?ru
(16.6209°N, 80.6208°E)
Time: 01:23:48
(UTC+00:00)

ALOS - Pass Details

Date: 18 September 2020
Orbit: 683 x 685 km, 97.9° (Epoch: 26 October)

Event Time Altitude Azimuth Distance (km) Brightness Sun altitude
Rises 22:53:19 0° 16° (NNE) 3,038 5.9 -23.0°
Reaches altitude 10° 22:55:34 10° 19° (NNE) 2,121 5.1 -22.4°
Maximum altitude 23:00:11 66° 101° (E) 741 2.6 -21.4°
Drops below altitude 10° 23:04:47 10° 184° (S) 2,117 4.7 -20.3°
Sets 23:07:01 0° 186° (S) 3,031 5.5 -19.7°
